Regional Weather Roundup
Issued by NWS

Home | Current Version | Previous Version | Graphics & Text | Print | Product List | Glossary On
Versions: 1 2 3 4 5 6 7 8 9 10 11 12 13 14 15 16 17 18 19 20 21 22 23 24 25 26 27 28 29 30 31 32 33 34 35 36 37 38 39 40 41 42 43 44 45 46 47 48 49 50
020
ASUS44 KLIX 222105
RWRLA
LOUISIANA WEATHER ROUNDUP
NATIONAL WEATHER SERVICE NEW ORLEANS LA
300 PM CST MON DEC 22 2014

NOTE: "FAIR" INDICATES FEW OR NO CLOUDS BELOW 12,000 FEET WITH NO
      SIGNIFICANT WEATHER AND/OR OBSTRUCTIONS TO VISIBILITY.
      SKY/WX - SKY CONDITION AND SIGNIFICANT WEATHER.
      TMP - AIR TEMPERATURE.    DP   - DEWPOINT TEMPERATURE.
      RH  - RELATIVE HUMIDITY.  PRES - PRESSURE.
      HX  - HEAT INDEX.         WCI  - WIND CHILL INDEX.

*  THESE STATIONS ARE NOT NWS OR FAA STATIONS AND ARE NOT UNDER
   NWS QUALITY CONTROL.

LAZ040-048-061>063-065-066-069-222200-
SOUTHEAST LOUISIANA

CITY           SKY/WX    TMP DP  RH WIND       PRES   REMARKS
N.O. AUDUBON     N/A     70  69  96 MISG        N/A
N.O. INTL ARPT PTSUNNY   75  66  73 S20       29.71S
N.O. LAKEFRONT MOSUNNY   75  66  73 S17       29.72S
N.O. DOWNTOWN* MOCLDY    72  66  83 S14G20    29.72F
SLIDELL        LGT RAIN  72  67  84 SW8       29.71F
BATON ROUGE    PTSUNNY   76  62  62 SW15      29.67F
BOOTHVILLE     MOSUNNY   72  67  84 S15       29.76F
BELLE CHASSE   PTSUNNY   74  68  81 S17       29.72S
BOGALUSA*        N/A     76  65  68 SW9       29.71F
GALLIANO*      MOCLDY    76  68  77 MISG      29.73F
NEW ROADS*     MOCLDY    73  63  70 S7        29.66F
GONZALES*      MOCLDY    76  65  69 SW14G20   29.69S
HAMMOND*       NOT AVBL
HOUMA*         PTSUNNY   73  70  88 SW15G21   29.72F
PORT FOURCHON* PTCLDY    73  68  83 S12G18    29.77F

$$

LAZ041-044-053-054-222200-
SOUTHWEST LOUISIANA

CITY           SKY/WX    TMP DP  RH WIND       PRES   REMARKS
LAKE CHARLES   PTSUNNY   71  62  73 SW16G22   29.64F
LAFAYETTE      PTSUNNY   76  62  62 SW21G30   29.67F
PATTERSON      CLOUDY    73  66  78 SW14      29.71F
SALT POINT       N/A     72  65  78 VRB6      29.70F
NEW IBERIA     CLOUDY    75  64  68 SW12      29.69F
CHENAULT AIRPK MOSUNNY   72  63  73 SW18G26   29.65F

$$

LAZ027-028-222200-
CENTRAL LOUISIANA

CITY           SKY/WX    TMP DP  RH WIND       PRES   REMARKS
FORT POLK      PTSUNNY   71  61  70 SW12G24   29.60S
ALEXANDRIA INT CLOUDY    68  61  78 S12       29.60F
ALEXANDRIA     CLOUDY    69  60  73 S9        29.61F

$$

LAZ001-002-222200-
NORTHWEST LOUISIANA

CITY           SKY/WX    TMP DP  RH WIND       PRES   REMARKS
SHREVEPORT     PTSUNNY   68  56  65 S17G24    29.53F
BARKSDALE AFB  NOT AVBL
DTN SHREVEPORT PTSUNNY   66  56  70 S12       29.54F

$$

LAZ014-016-222200-
NORTHEAST LOUISIANA

CITY           SKY/WX    TMP DP  RH WIND       PRES   REMARKS
MONROE         CLOUDY    65  59  81 S13       29.61F
TALLULAH       CLOUDY    66  60  81 S12       29.63F

$$




USA.gov is the U.S. government's official web portal to all federal, state and local government web resources and services.